Regional Weather Roundup
Issued by NWS

Home | Current Version | Previous Version | Graphics & Text | Print | Product List | Glossary Off
Versions: 1 2 3 4 5 6 7 8 9 10 11 12 13 14 15 16 17 18 19 20 21 22 23 24 25 26 27 28 29 30 31 32 33 34 35 36 37 38 39 40 41 42 43 44 45 46 47 48 49 50

000
ASUS43 KTOP 270708
RWRKS

WEATHER ROUNDUP FOR KANSAS
NATIONAL WEATHER SERVICE GOODLAND KS
200 AM CDT WED JUL 27 2016

NOTE:  "FAIR" INDICATES FEW OR NO CLOUDS BELOW 12,000 FEET WITH NO
SIGNIFICANT WEATHER AND/OR OBSTRUCTIONS TO VISIBILITY.

KSZ001>006-013>018-027>032-041>047-270800-
NORTHWEST KANSAS

CITY           SKY/WX    TMP DP  RH WIND       PRES   REMARKS
GOODLAND       PTCLDY    71  53  52 S10       30.06R
HAYS           CLOUDY    73  64  73 E6        30.02R
HILL CITY      CLOUDY    75  66  73 E7        30.04R
RUSSELL        CLOUDY    74  69  85 SE6       30.01S
$$

KSZ061>065-074>080-084>089-270800-
SOUTHWEST KANSAS

CITY           SKY/WX    TMP DP  RH WIND       PRES   REMARKS
DODGE CITY     CLEAR     71  66  84 SE7       30.03F
ELKHART          N/A     70  64  81 E5          N/A
GARDEN CITY    MOCLDY    70  67  90 SW3       30.05F
GREAT BEND     CLOUDY    73  64  73 SE7       30.00F
LIBERAL        CLEAR     72  63  73 CALM      30.07F
PRATT          CLEAR     72  67  87 SE3       30.01F
$$

KSZ066>073-081>083-090>101-270800-
SOUTHEAST KANSAS

CITY           SKY/WX    TMP DP  RH WIND       PRES   REMARKS
CHANUTE        PTCLDY    73  71  93 S3        29.97F
COFFEYVILLE    CLEAR     73  72  96 CALM      29.96F
HUTCHINSON     CLEAR     73  70  90 E6        29.99F
NEWTON         CLEAR     72  71  97 NE3       30.00F
PARSONS        CLEAR     72  70  93 NE3       29.98F
WICHITA INTL   PTCLDY    77  72  84 CALM      29.98F
WICHITA JABRA  CLEAR     72  71  97 NE3       29.98F
WICHITA MCCONL CLEAR     75  72  89 E5        29.98F
WINFIELD       CLEAR     75  72  90 SE5       29.97F
$$

KSZ007>012-019>026-033>040-048>060-102>105-270800-
NORTHEAST KANSAS

CITY           SKY/WX    TMP DP  RH WIND       PRES   REMARKS
CONCORDIA      PTCLDY    69  66  90 S7        30.01F
EMPORIA        CLEAR     72  69  90 CALM      29.98F
LAWRENCE       CLEAR     67  66  97 CALM      29.98F
MANHATTAN      CLEAR     71  68  90 N6        30.00F
MARYSVILLE     CLEAR     68  64  88 CALM      30.01R
OLATHE IND     MOCLDY    73  68  84 NE6       30.00F
SALINA         PTCLDY    74  68  81 SE3       29.99F
TOPEKA BILLARD CLEAR     72  68  87 CALM      29.98F
TOPEKA FORBES  CLEAR     71  68  90 CALM      29.99F
$$



USA.gov is the U.S. government's official web portal to all federal, state and local government web resources and services.